SB KEPS @ AMSAT $ORB14191.O Orbital Elements 14191.OSCAR
HR AMSAT ORBITAL ELEMENTS FOR OSCAR SATELLITES FROM WA5QGD FORT WORTH,TX July 10, 2014 BID: ORB14191.O TO ALL RADIO AMATEURS BT
Satellite: AO-07 Catalog number: 07530 Epoch time: 14191.84923912 Element set: 11 Inclination: 101.4730 deg RA of node: 172.9032 deg Eccentricity: 0.0011453 Arg of perigee: 248.0332 deg Mean anomaly: 226.8986 deg Mean motion: 12.53605878 rev/day Decay rate: -4.8e-07 rev/day^2 Epoch rev: 81448 Checksum: 289
Satellite: FO-29 Catalog number: 24278 Epoch time: 14191.88780103 Element set: 416 Inclination: 098.5120 deg RA of node: 202.4778 deg Eccentricity: 0.0349709 Arg of perigee: 236.0306 deg Mean anomaly: 194.5347 deg Mean motion: 13.53026462 rev/day Decay rate: -3.7e-07 rev/day^2 Epoch rev: 88387 Checksum: 324
Satellite: SO-33 Catalog number: 25509 Epoch time: 14191.88798095 Element set: 790 Inclination: 031.4335 deg RA of node: 026.0907 deg Eccentricity: 0.0349471 Arg of perigee: 321.9956 deg Mean anomaly: 167.3687 deg Mean motion: 14.29556378 rev/day Decay rate: 2.75e-06 rev/day^2 Epoch rev: 82054 Checksum: 350
Satellite: RS-22 Catalog number: 27939 Epoch time: 14191.72472758 Element set: 656 Inclination: 097.8112 deg RA of node: 004.7017 deg Eccentricity: 0.0014271 Arg of perigee: 036.0097 deg Mean anomaly: 324.2067 deg Mean motion: 14.65242208 rev/day Decay rate: 1.093e-05 rev/day^2 Epoch rev: 57617 Checksum: 302
Satellite: VO-52 Catalog number: 28650 Epoch time: 14191.12276865 Element set: 787 Inclination: 097.5594 deg RA of node: 194.9419 deg Eccentricity: 0.0026663 Arg of perigee: 083.5702 deg Mean anomaly: 276.8549 deg Mean motion: 14.85564527 rev/day Decay rate: 2.959e-05 rev/day^2 Epoch rev: 49663 Checksum: 377
Satellite: HO-68 Catalog number: 36122 Epoch time: 14191.74806411 Element set: 753 Inclination: 100.2476 deg RA of node: 242.9061 deg Eccentricity: 0.0007379 Arg of perigee: 181.7686 deg Mean anomaly: 178.3393 deg Mean motion: 13.16316665 rev/day Decay rate: -4.3e-07 rev/day^2 Epoch rev: 21953 Checksum: 308
Satellite: AO-73 Catalog number: 39444 Epoch time: 14191.23671537 Element set: 190 Inclination: 097.7700 deg RA of node: 261.1043 deg Eccentricity: 0.0062148 Arg of perigee: 167.2845 deg Mean anomaly: 193.0070 deg Mean motion: 14.78380675 rev/day Decay rate: 2.492e-05 rev/day^2 Epoch rev: 3287 Checksum: 310
Satellite: EO-79 Catalog number: 40025 Epoch time: 14191.66279843 Element set: 54 Inclination: 097.9798 deg RA of node: 086.3361 deg Eccentricity: 0.0012527 Arg of perigee: 217.4967 deg Mean anomaly: 142.5400 deg Mean motion: 14.85240893 rev/day Decay rate: 2.039e-05 rev/day^2 Epoch rev: 307 Checksum: 319
/EX SB KEPS @ AMSAT $ORB14191.D Orbital Elements 14191.MICROS
HR AMSAT ORBITAL ELEMENTS FOR THE MICROSATS FROM WA5QGD FORT WORTH,TX July 10, 2014 BID: ORB14191.D TO ALL RADIO AMATEURS BT
Satellite: UO-11 Catalog number: 14781 Epoch time: 14191.26391234 Element set: 541 Inclination: 097.8508 deg RA of node: 250.9403 deg Eccentricity: 0.0010212 Arg of perigee: 106.3652 deg Mean anomaly: 253.8684 deg Mean motion: 14.81643464 rev/day Decay rate: 8.78e-06 rev/day^2 Epoch rev: 63138 Checksum: 299
Satellite: AO-16 Catalog number: 20439 Epoch time: 14191.78158866 Element set: 64 Inclination: 098.5072 deg RA of node: 128.6743 deg Eccentricity: 0.0012125 Arg of perigee: 091.1533 deg Mean anomaly: 328.1531 deg Mean motion: 14.32367135 rev/day Decay rate: 1.26e-06 rev/day^2 Epoch rev: 27786 Checksum: 302
Satellite: LO-19 Catalog number: 20442 Epoch time: 14191.82257763 Element set: 2 Inclination: 098.4780 deg RA of node: 129.2980 deg Eccentricity: 0.0013005 Arg of perigee: 080.9709 deg Mean anomaly: 279.2947 deg Mean motion: 14.32568821 rev/day Decay rate: 1.15e-06 rev/day^2 Epoch rev: 27806 Checksum: 309
Satellite: AO-27 Catalog number: 22825 Epoch time: 14191.84506321 Element set: 711 Inclination: 098.6628 deg RA of node: 137.8009 deg Eccentricity: 0.0007763 Arg of perigee: 221.8214 deg Mean anomaly: 196.7112 deg Mean motion: 14.29728669 rev/day Decay rate: 8.3e-07 rev/day^2 Epoch rev: 8416 Checksum: 314
Satellite: IO-26 Catalog number: 22826 Epoch time: 14191.40424191 Element set: 467 Inclination: 098.6571 deg RA of node: 137.5779 deg Eccentricity: 0.0008401 Arg of perigee: 215.6070 deg Mean anomaly: 144.4553 deg Mean motion: 14.30029945 rev/day Decay rate: 1.21e-06 rev/day^2 Epoch rev: 8423 Checksum: 289
Satellite: GO-32 Catalog number: 25397 Epoch time: 14191.84790795 Element set: 390 Inclination: 098.4701 deg RA of node: 148.9552 deg Eccentricity: 0.0000849 Arg of perigee: 174.1661 deg Mean anomaly: 238.4406 deg Mean motion: 14.23450249 rev/day Decay rate: 4.3e-07 rev/day^2 Epoch rev: 83123 Checksum: 314
Satellite: NO-44 Catalog number: 26931 Epoch time: 14191.47318209 Element set: 645 Inclination: 067.0533 deg RA of node: 338.4075 deg Eccentricity: 0.0006726 Arg of perigee: 281.9863 deg Mean anomaly: 078.0484 deg Mean motion: 14.30129119 rev/day Decay rate: 9.7e-07 rev/day^2 Epoch rev: 66693 Checksum: 325
Satellite: SO-50 Catalog number: 27607 Epoch time: 14191.15574452 Element set: 441 Inclination: 064.5564 deg RA of node: 162.3286 deg Eccentricity: 0.0050389 Arg of perigee: 003.9811 deg Mean anomaly: 356.1681 deg Mean motion: 14.73814397 rev/day Decay rate: 1.150e-05 rev/day^2 Epoch rev: 62086 Checksum: 305
Satellite: CO-55 Catalog number: 27844 Epoch time: 14191.07337462 Element set: 967 Inclination: 098.6977 deg RA of node: 199.5154 deg Eccentricity: 0.0009437 Arg of perigee: 202.1345 deg Mean anomaly: 195.4438 deg Mean motion: 14.21524006 rev/day Decay rate: 2.59e-06 rev/day^2 Epoch rev: 57183 Checksum: 334
Satellite: CO-57 Catalog number: 27848 Epoch time: 14191.01717020 Element set: 907 Inclination: 098.7071 deg RA of node: 199.1834 deg Eccentricity: 0.0009190 Arg of perigee: 209.3398 deg Mean anomaly: 210.3047 deg Mean motion: 14.21208878 rev/day Decay rate: 2.16e-06 rev/day^2 Epoch rev: 57174 Checksum: 312
Satellite: AO-51 Catalog number: 28375 Epoch time: 14191.80810062 Element set: 883 Inclination: 098.2512 deg RA of node: 137.9150 deg Eccentricity: 0.0081754 Arg of perigee: 280.9989 deg Mean anomaly: 078.2013 deg Mean motion: 14.41401566 rev/day Decay rate: 1.46e-06 rev/day^2 Epoch rev: 52730 Checksum: 305
Satellite: CP3 Catalog number: 31129 Epoch time: 14191.82546358 Element set: 792 Inclination: 097.9352 deg RA of node: 168.6120 deg Eccentricity: 0.0096959 Arg of perigee: 297.6031 deg Mean anomaly: 128.9140 deg Mean motion: 14.54745500 rev/day Decay rate: 7.34e-06 rev/day^2 Epoch rev: 38347 Checksum: 327
Satellite: CO-65 Catalog number: 32785 Epoch time: 14191.81060353 Element set: 998 Inclination: 097.6977 deg RA of node: 242.3297 deg Eccentricity: 0.0015371 Arg of perigee: 110.6317 deg Mean anomaly: 314.9135 deg Mean motion: 14.85368522 rev/day Decay rate: 2.391e-05 rev/day^2 Epoch rev: 33553 Checksum: 327
Satellite: PRISM Catalog number: 33493 Epoch time: 14191.79272040 Element set: 89 Inclination: 098.2507 deg RA of node: 008.4488 deg Eccentricity: 0.0017931 Arg of perigee: 012.3761 deg Mean anomaly: 347.7926 deg Mean motion: 14.89579576 rev/day Decay rate: 4.332e-05 rev/day^2 Epoch rev: 29569 Checksum: 340
Satellite: SOHLA-1 Catalog number: 33496 Epoch time: 14191.81104373 Element set: 398 Inclination: 098.1729 deg RA of node: 312.8021 deg Eccentricity: 0.0007143 Arg of perigee: 158.8329 deg Mean anomaly: 352.5302 deg Mean motion: 14.70834526 rev/day Decay rate: 4.06e-06 rev/day^2 Epoch rev: 29298 Checksum: 303
Satellite: TISAT-1 Catalog number: 36799 Epoch time: 14191.79047142 Element set: 351 Inclination: 098.0170 deg RA of node: 283.9643 deg Eccentricity: 0.0012213 Arg of perigee: 241.3311 deg Mean anomaly: 118.6687 deg Mean motion: 14.85764818 rev/day Decay rate: 3.158e-05 rev/day^2 Epoch rev: 21622 Checksum: 306
Satellite: STUDSAT Catalog number: 36801 Epoch time: 14190.80454005 Element set: 851 Inclination: 098.0379 deg RA of node: 291.4604 deg Eccentricity: 0.0008410 Arg of perigee: 210.8934 deg Mean anomaly: 261.8119 deg Mean motion: 14.97075726 rev/day Decay rate: 1.6773e-04 rev/day^2 Epoch rev: 21651 Checksum: 297
Satellite: ALMASAT-1 Catalog number: 38078 Epoch time: 14191.88929744 Element set: 79 Inclination: 069.4681 deg RA of node: 002.0635 deg Eccentricity: 0.0589031 Arg of perigee: 000.2068 deg Mean anomaly: 145.6700 deg Mean motion: 14.51392799 rev/day Decay rate: 2.7220e-04 rev/day^2 Epoch rev: 12507 Checksum: 311
Satellite: XATCOBEO Catalog number: 38082 Epoch time: 14191.66630400 Element set: 388 Inclination: 069.4355 deg RA of node: 249.2692 deg Eccentricity: 0.0174791 Arg of perigee: 297.1386 deg Mean anomaly: 210.6757 deg Mean motion: 15.65440994 rev/day Decay rate: 3.18343e-03 rev/day^2 Epoch rev: 12805 Checksum: 331
Satellite: CUBEBUG-1 Catalog number: 39153 Epoch time: 14191.78578416 Element set: 283 Inclination: 098.0416 deg RA of node: 272.0408 deg Eccentricity: 0.0016704 Arg of perigee: 275.9009 deg Mean anomaly: 084.0329 deg Mean motion: 14.77770528 rev/day Decay rate: 1.562e-05 rev/day^2 Epoch rev: 6504 Checksum: 310
Satellite: ESTCUBE-1 Catalog number: 39161 Epoch time: 14191.70570207 Element set: 273 Inclination: 098.0962 deg RA of node: 272.4290 deg Eccentricity: 0.0009203 Arg of perigee: 330.0004 deg Mean anomaly: 030.0681 deg Mean motion: 14.70043236 rev/day Decay rate: 1.251e-05 rev/day^2 Epoch rev: 6305 Checksum: 241
Satellite: DUCHIFAT-1 Catalog number: 40021 Epoch time: 14191.79613980 Element set: 55 Inclination: 097.9817 deg RA of node: 086.4775 deg Eccentricity: 0.0012906 Arg of perigee: 218.4336 deg Mean anomaly: 141.5968 deg Mean motion: 14.85352591 rev/day Decay rate: 2.747e-05 rev/day^2 Epoch rev: 308 Checksum: 317
Satellite: NANOSATCBR1 Catalog number: 40024 Epoch time: 14191.66264126 Element set: 52 Inclination: 097.9807 deg RA of node: 086.3365 deg Eccentricity: 0.0012535 Arg of perigee: 217.5892 deg Mean anomaly: 142.4465 deg Mean motion: 14.85259467 rev/day Decay rate: 2.488e-05 rev/day^2 Epoch rev: 306 Checksum: 304
